[keps] orb06299.2l.amsat

Ray Hoad r.hoad at att.net
Thu Oct 26 21:20:12 PDT 2006


SB KEPS @ AMSAT  $ORB06299.N
2Line Orbital Elements 06299.AMSAT

HR AMSAT ORBITAL ELEMENTS FOR AMATEUR SATELLITES IN NASA FORMAT
FROM WA5QGD FORT WORTH,TX October 26, 2006
Send SUBSCRIBE KEPS/UNSUBSCRIBE KEPS to majordomo at amsat.org only
BID: ORB06299.N

DECODE 2-LINE ELSETS WITH THE FOLLOWING KEY:
1 AAAAAU 00  0  0 BBBBB.BBBBBBBB  .CCCCCCCC  00000-0  00000-0 0  DDDZ
2 AAAAA EEE.EEEE FFF.FFFF GGGGGGG HHH.HHHH III.IIII JJ.JJJJJJJJKKKKKZ
KEY: A-CATALOGNUM B-EPOCHTIME C-DECAY D-ELSETNUM E-INCLINATION F-RAAN
G-ECCENTRICITY H-ARGPERIGEE I-MNANOM J-MNMOTION K-ORBITNUM Z-CHECKSUM

TO ALL RADIO AMATEURS BT

AO-07
1 07530U 74089B   06298.74993483 -.00000028  00000-0  10000-3 0  7123
2 07530 101.5532 338.3449 0011954 352.9343 007.1558 12.53571561461741
UO-11
1 14781U 84021B   06298.64886434 -.00000119  00000-0 -85292-5 0  2081
2 14781 098.2057 311.6360 0008648 201.0159 159.0682 14.79472669215057
RS-10/11
1 18129U 87054A   06299.81701050  .00000022  00000-0  78596-5 0  1270
2 18129 082.9227 230.7717 0013358 084.8852 275.3824 13.72779636969214
RS-15
1 23439U 94085A   06298.74767387 -.00000039  00000-0  10597-3 0 09955
2 23439 064.8226 026.0649 0166070 231.4741 127.1194 11.27551874487263
FO-29
1 24278U 96046B   06298.91983671 -.00000012  00000-0  25397-4 0 03502
2 24278 098.5207 285.4122 0350685 330.7730 027.4182 13.52924506503223
SO-33
1 25509U 98061B   06299.65305840  .00000095  00000-0  50066-5 0  7761
2 25509 031.4278 106.0751 0354626 185.6797 173.9719 14.28128579417845
VO-52
1 28650U 05017B   06298.77438942  .00000553  00000-0  77547-4 0 04636
2 28650 097.8602 009.4087 0026239 297.7757 062.0801 14.81194003079711
AO-16
1 20439U 90005D   06298.62654620  .00000003  00000-0  16261-4 0 08787
2 20439 098.1891 301.2522 0010968 160.9599 199.1987 14.31736856874988
LO-19
1 20442U 90005G   06299.47307853  .00000042  00000-0  30531-4 0  8114
2 20442 098.1853 311.5726 0012116 158.5562 201.6155 14.31979551875247
AO-27
1 22825U 93061C   06298.80638714  .00000112  00000-0  60192-4 0  5284
2 22825 098.2995 274.3272 0007484 233.8557 126.1915 14.29187728682017
IO-26
1 22826U 93061D   06298.89391076  .00000016  00000-0  22357-4 0 02226
2 22826 098.2934 275.5750 0008142 230.4346 129.6120 14.29431861682102
PO-28
1 22829U 93061G   06299.45396834  .00000025  00000-0  25576-4 0  5059
2 22829 098.2844 277.3038 0009387 200.8354 159.2449 14.30128232682409
GO-32
1 25397U 98043D   06298.68237994  .00000073  00000-0  51012-4 0  1415
2 25397 098.4513 350.7215 0001301 156.5355 203.5888 14.23113327430802
MO-46
1 26548U 00057D   06299.20181415  .00000064  00000-0  26131-4 0  6304
2 26548 064.5573 186.4919 0040139 228.8309 130.9330 14.83036836328839
NO-44
1 26931U 01043C   06298.55999165  .00000274  00000-0  13951-3 0  4320
2 26931 067.0554 031.8638 0004914 259.3053 100.7510 14.29458312264560
SO-50
1 27607U 02058C   06298.81702176  .00000085  00000-0  35369-4 0 01551
2 27607 064.5573 076.5520 0034967 091.4042 269.1053 14.71185345206641
CO-55
1 27844U 03031E   06298.61686038  .00000078  00000-0  56732-4 0  8794
2 27844 098.7225 305.1229 0010642 049.8238 310.3870 14.20465243172170
CO-57
1 27848U 03031J   06298.53757161  .00000064  00000-0  50169-4 0 08451
2 27848 098.7211 304.3334 0010542 052.6335 307.5799 14.20290891172146
AO-51
1 28375U 04025K   06298.66053572  .00000025  00000-0  20224-4 0 06623
2 28375 098.1484 344.6437 0083570 172.2789 187.9712 14.40538154121959
CO-56
1 28941U 06005C   06298.63159181  .00025366  24412-5  30375-3 0 02370
2 28941 098.1652 330.0053 0263839 017.5958 343.4050 15.29495696037451
NOAA-10
1 16969U 86073A   06299.09498071 -.00000078  00000-0 -13693-4 0  3985
2 16969 098.7577 311.0049 0012999 127.3847 232.8517 14.27306449 45834
NOAA-11
1 19531U 88089A   06299.19271834 -.00000133  00000-0 -45875-4 0  3506
2 19531 098.8241 026.1697 0011323 340.2263 019.8468 14.14821482933066
NOAA-12
1 21263U 91032A   06299.22140555  .00000156  00000-0  84563-4 0  8440
2 21263 098.7411 292.0218 0013599 067.7915 292.4712 14.25512335802910
MET-3/5
1 21655U 91056A   06298.95801256  .00000051  00000-0  10000-3 0 02422
2 21655 082.5573 168.4233 0014331 073.2283 287.0411 13.17008300730573
MET-2/21
1 22782U 93055A   06298.92327059 -.00000056  00000-0 -64298-4 0 06527
2 22782 082.5494 227.7270 0022219 169.3893 190.7741 13.83609045664124
OKEAN-4
1 23317U 94066A   06298.76392272  .00000055  00000-0  39631-5 0   868
2 23317 082.5398 155.2266 0021273 308.2029 051.7251 14.82412232649323
NOAA-14
1 23455U 94089A   06299.30738820  .00000114  00000-0  84650-4 0  3432
2 23455 099.0231 358.8814 0009835 044.2904 315.9098 14.13672374609592
SICH-1
1 23657U 95046A   06298.77918473  .00000334  00000-0  39623-4 0 08905
2 23657 082.5254 296.1045 0022448 295.9209 063.9716 14.81403697601321
NOAA-15
1 25338U 98030A   06299.22309541 -.00000033  00000-0  42475-5 0  7197
2 25338 098.5229 297.6465 0010667 356.9015 003.2089 14.24607642439370
RESURS
1 25394U 98043A   06298.75593943  .00000005  00000-0  20464-4 0 05022
2 25394 098.4789 357.1404 0001777 125.3015 234.8331 14.24115085430982
FENGYUN1
1 25730U 99025A   06298.80715408  .00000264  00000-0  16745-3 0  8571
2 25730 098.6376 286.4852 0015005 126.4566 233.7982 14.11818474384440
OKEAN-0
1 25860U 99039A   06298.60253855  .00000068  00000-0  17634-4 0 08875
2 25860 097.7325 306.8570 0001859 066.1307 294.0092 14.73397824390951
NOAA-16
1 26536U 00055A   06299.20418012 -.00000104  00000-0 -31649-4 0  1082
2 26536 099.0866 267.4726 0011121 109.4355 250.8030 14.12376460314076
NOAA-17
1 27453U 02032A   06299.37327967  .00000291  00000-0  14604-3 0  1282
2 27453 098.6101 008.9585 0012395 056.9619 303.2763 14.23821444225443
NOAA-18
1 28654U 05018A   06299.25261585  .00000454  00000-0  27637-3 0  6920
2 28654 098.8018 239.7888 0013774 208.8442 151.1986 14.11004221 73867
HUBBLE
1 20580U 90037B   06298.36596241  .00000446  00000-0  21886-4 0 07312
2 20580 028.4698 281.2264 0003888 129.4972 230.5962 15.00115749704663
UARS
1 21701U 91063B   06298.94060996  .00005782  00000-0  10553-3 0 09256
2 21701 056.9744 248.3222 0106635 100.6383 260.6681 15.45062088829505
PO-34
1 25520U 98064B   06298.95755991  .00000621  00000-0  21001-4 0 06237
2 25520 028.4613 236.2245 0005458 220.2830 139.7361 15.16820618441921
ISS
1 25544U 98067A   06299.99097506  .00018390  00000-0  11265-3 0  9406
2 25544 051.6340 228.3352 0012359 139.6907 317.7007 15.77293005453951
OO-38
1 26063U 00004C   06298.81657334  .00000011  00000-0  23962-4 0  7494
2 26063 100.2002 253.4303 0037240 099.2477 261.2905 14.35781651353410
NO-45
1 26932U 01043D   06298.77741861 -.00000053  00000-0  11503-4 0 04512
2 26932 067.0571 031.0298 0005243 234.3064 125.7549 14.29537903264636
UWE-1
1 28892U 05043C   06299.35713415  .00000093  00000-0  29269-4 0  5851
2 28892 098.1473 195.3407 0018164 119.3078 240.9954 14.59410387 53105
CO-58
1 28895U 05043F   06299.34369748 -.00000005  00000-0  87193-5 0  5696
2 28895 098.1507 195.4543 0018553 118.7230 241.5804 14.59459715 52987
NCUBE2
1 28897U 05043H   06297.18186691  .00000169  00000-0  45134-4 0 01382
2 28897 098.1474 193.3051 0017692 128.1265 232.1530 14.59616881044947
/EX






More information about the Keps mailing list